Tracking 27188 objects as of 2-Apr-2023
HD Live streaming from Space Station
objects crossing your sky now

SLOSHSAT

Track SLOSHSAT now!
SLOSHSAT is classified as:


NORAD ID: 28544
Int'l Code: 2005-005C
Perigee: 266.0 km
Apogee: 32,097.4 km
Inclination: 6.8 °
Period: 561.8 minutes
Semi major axis: 22552 km
RCS: 0.5011 m2 (medium)
Launch date: February 12, 2005
Source: European Space Agency (ESA)
Launch site: FRENCH GUIANA (FRGUI)
Your satellite tracking list
Your tracking list is empty




NASA's NSSDC Master Catalog

Two Line Element Set (TLE):
1 28544U 05005C   23091.30207210  .00004644  00000-0  12976-2 0  9998
2 28544   6.7634 217.3717 7057129 213.7401  69.3980  2.56333912160150
Source of the keplerian elements: AFSPC